Regional Weather Roundup
Issued by NWS

Home | Current Version | Previous Version | Text Only | Print | Product List | Glossary On
Versions: 1 2 3 4 5 6 7 8 9 10 11 12 13 14 15 16 17 18 19 20 21 22 23 24 25 26 27 28 29 30 31 32 33 34 35 36 37 38 39 40 41 42 43 44 45 46 47 48 49 50
781
ASUS44 KLUB 261001
RWRTX
WEST TEXAS WEATHER ROUNDUP
NATIONAL WEATHER SERVICE LUBBOCK TX
500 AM CDT WED APR 26 2017

NOTE: "FAIR" INDICATES FEW OR NO CLOUDS BELOW 12,000 FEET WITH NO
SIGNIFICANT WEATHER AND/OR OBSTRUCTIONS TO VISIBILITY.

TXZ004-006>008-010-012-014-016-OKZ002-261100-
TEXAS PANHANDLE/OKLAHOMA PANHANDLE

CITY           SKY/WX    TMP DP  RH WIND       PRES   REMARKS
AMARILLO       CLOUDY    47  46  97 NE18      29.64F FOG
BORGER         LGT RAIN  47  46  97 NE18G30   29.67S
CANADIAN       CLOUDY    47  45  93 NE15      29.68R
DALHART        LGT RAIN  45  43  93 N21G29    29.72R
DUMAS          RAIN      44  42  95 N21G26    29.69R
GUYMON         LGT RAIN  43  40  89 N23G31    29.74R
HEREFORD       CLOUDY    50  47  90 NE13      29.64R
PAMPA          LGT RAIN  46  44  95 NE24      29.67R
PERRYTON       CLOUDY    45  42  88 NE16      29.71R
$$

TXZ026-029-035-045-048-261100-
SOUTHERN PANHANDLE/SOUTH PLAINS/ROLLING PLAINS

CITY           SKY/WX    TMP DP  RH WIND       PRES   REMARKS
CHILDRESS      CLOUDY    54  50  86 NW17      29.61F
SEMINOLE       MOCLDY    52  37  55 SW6       29.67R
LUBBOCK        CLOUDY    57  45  64 SW9       29.59F
PLAINVIEW      CLOUDY    50  47  88 NE8       29.59F
SNYDER         CLOUDY   N/A N/A N/A NW8       29.58S
$$

TXZ052-054-060>062-072-078-127-140-154-169-261100-
PERMIAN BASIN/CONCHO VALLEY/BIG COUNTRY/EDWARDS PLATEAU

CITY           SKY/WX    TMP DP  RH WIND       PRES   REMARKS
ABILENE        LGT RAIN  65  54  67 N25G33    29.53R
BIG SPRING     CLOUDY    60  40  47 W9        29.65R
JUNCTION       CLEAR     72  65  78 S3        29.49F
MIDLAND        PTCLDY    60  38  43 NW9       29.66R
ODESSA         CLOUDY    59  36  42 NW9       29.67R
SAN ANGELO     CLOUDY    73  38  27 NW26G36   29.54R
SONORA         CLEAR     72  41  33 N15G24    29.60R
SWEETWATER     CLOUDY    65  46  49 NW8       29.57R
WINK           CLOUDY    60  33  36 NW9       29.67R
$$

TXZ055-058-074-075-080-082-261100-
FAR WEST/SOUTHWEST MOUNTAINS/TRANS PECOS

CITY           SKY/WX    TMP DP  RH WIND       PRES   REMARKS
ALPINE         CLOUDY    67  35  31 NW14      29.81S
DRYDEN           N/A     74  39  28 N17G31    29.61R
EL PASO        PTCLDY    57  32  38 NE7       29.81R
FORT STOCKTON  CLOUDY    64  37  36 NW15      29.71R
GUADALUPE PASS MOCLDY    54  30  40 W21G36    29.80R
MARFA          MOCLDY    64  35  34 NW18G25   29.81R
PECOS          CLOUDY    65  34  31 NW14G20   29.70R
$$

TXZ014-016-019-021>030-083-261100
TEXAS TECH WEST TEXAS MESONET/TEXAS PANHANDLE/NORTHERN SOUTH PLAINS

CITY           SKY/WX    TMP DP  RH WIND       PRES   REMARKS
ABERNATHY 5ENE   N/A     54  49  82 SE7       29.59F
AMARILLO 9NNE    N/A     48  46  94 NE20      29.65R
AMARILLO 7SSE    N/A     47  46  93 NE14      29.64R
AMHERST 1NE      N/A     51  47  85 N6        29.64R
BOOTLEG 11WNW  LGT RAIN  45  39  82 NW23      29.70R
CANADIAN 6E      N/A     45  43  93 N9        29.67R
CAPROCK CYN SP   N/A     52  50  92 N8        29.62S
CHILDRESS 2NNE   N/A     52  49  87 NW10      29.58R
CLARENDON 2WSW   N/A     49  45  86 NE14      29.61S
CLAUDE 12SW      N/A     47  45  91 NE21      29.62F
DIMMITT 2NE      N/A     47  46  94 N6        29.65R
FLOYDADA 2NNE    N/A     50  49  95 NE3       29.59R
FRIONA 2NE       N/A     47  45  92 E3        29.66R
GOODLETT 3W      N/A     53  48  84 N12       29.53F
HART 3N          N/A     49  47  93 N12       29.63R
HEREFORD 2NW     N/A     48  44  86 NE8       29.63S
MCLEAN 1E        N/A     47  44  91 N15       29.62F
MEMPHIS 1NE      N/A     51  48  89 N15       29.58F
MULESHOE 2SSW    N/A     49  45  87 N7        29.65R
OLTON 6S         N/A     51  48  90 NW3       29.62R
PALO DURO SP     N/A     48  44  86 NE10      29.64R
PAMPA 2E         N/A     45  44  97 N16       29.66S
PLAINVIEW 1S     N/A     51  49  90 NE6       29.59F
SILVERTON 7ESE   N/A     50  48  93 N9        29.62R
TULIA 2ENE       N/A     49  47  93 NE14      29.62S
TURKEY 2WSW      N/A     52  51  95 N8        29.59F
UMBARGER 3NNE    N/A     49  45  87 NE17      29.64R
$$

TXZ033>036-039>041-045>048-261100
TEXAS TECH WEST TEXAS MESONET/SOUTH PLAINS

CITY           SKY/WX    TMP DP  RH WIND       PRES   REMARKS
AIKEN 3WSW       N/A     51  49  91 NE10      29.60F
ANDREWS 2NE      N/A     57  35  43 W10       29.67R
ANTON 6SSW       N/A     56  44  65 W3        29.62S
BROWNFIELD 2S    N/A     59  34  39 W15       29.64R
DENVR CTY 7WNW   N/A     55  29  37 W18       29.66R
GAIL 2ESE        N/A     55  40  56 W7        29.60R
LAMESA 2SE       N/A     57  39  51 W8        29.64S
LUBBOCK 3WNW     N/A     56  42  59 SW3       29.61F
MORTON 1ENE      N/A     54  32  43 W17       29.63R
ODONNELL 1N      N/A     58  37  45 W6        29.62S
PLAINS 3N        N/A     52  32  47 W13       29.66R
RALLS 1SE        N/A     54  49  83 E6        29.60S
REESE CENTER     N/A     55  42  63 W3        29.62S
SEAGRAVES 1SW    N/A     56  36  48 W9        29.66R
SEMINOLE 2NNE    N/A     55  34  45 W9        29.66R
SLATON 2NE       N/A     57  47  70 S3        29.60F
SNYDER 3E        N/A     63  45  51 NW9       29.57R
SUNDOWN 8SW      N/A     53  33  48 W13       29.64R
TAHOKA 3NNE      N/A     57  42  57 SW6       29.61F
WOLFFORTH 6SSW   N/A     58  38  46 SW3       29.63R
$$

TXZ031-032-036>038-042>044-261100-
TEXAS TECH WEST TEXAS MESONET/ROLLING PLAINS

CITY           SKY/WX    TMP DP  RH WIND       PRES   REMARKS
ASPERMONT 3NE    N/A     58  49  72 N10       29.55R
FLUVANNA 3WNW    N/A     60  40  46 NW6       29.59S
GRAHAM 5SSW      N/A     58  41  52 W6        29.61S
GUTHRIE 10WSW    N/A     55  49  79 N12       29.56R
HASKELL 1NW      N/A     60  48  65 N20       29.52S
JAYTON 1SSE      N/A     58  52  79 N8        29.55S
KNOX CITY 3NW    N/A     58  48  69 N13       29.56R
LK A HENRY 1NW   N/A     60  46  60 NW7       29.59R
NORTHFIELD 1S    N/A     52  50  93 N3        29.58R
ODELL 4ENE       N/A     55  50  83 N15       29.55S
PADUCAH 10SW     N/A     54  49  82 N7        29.56F
POST 1NE         N/A     59  45  59 NW3       29.60S
RRING SPRGS 3N   N/A     52  51  95 NE6       29.57F
SEYMOUR 3NW      N/A     60  51  73 N20       29.53R
SPUR 1W          N/A     57  48  73 N8        29.57R
WEINERT 2NNE     N/A     59  50  72 N15       29.54S
WHITE RVR 6NE    N/A     54  48  80 NW7       29.59S
$$

TXZ052-054-060>062-072-078-127-140-154-169-261100-
TEXAS TECH WEST TEXAS MESONET/PERMIAN BASIN/
CONCHO VALLEY/BIG COUNTRY/EDWARDS PLATEAU

CITY           SKY/WX    TMP DP  RH WIND       PRES   REMARKS
COYANOSA 2N      N/A     66  32  27 NW14      29.69S
JUNCTION 1SSW    N/A     68  65  88 S3        29.50S
MERTZON 3NNE     N/A     71  40  33 NW16      29.59R
SAN ANGELO 7NW   N/A     71  38  29 NW13      29.55R
STRLNG CT 4WSW   N/A     67  38  34 NW9       29.59S
ST LAWRNCE 5SW   N/A     64  38  39 NW15      29.62R
SWEETWATR 11SW   N/A     66  44  44 NW7       29.57R
WALL 1E          N/A     73  42  32 NW23      29.53R
$$

TXZ055-058-074-075-080-082-261100-
TEXAS TECH WEST TEXAS MESONET/FAR WEST/SOUTHWEST MOUNTAINS/TRANS PECOS

CITY           SKY/WX    TMP DP  RH WIND       PRES   REMARKS
PRSMN GAP BBNP   N/A     78  40  25 NW10      29.65R
GUADLPE MTN NP   N/A     53  26  35 NW15      29.81R
$$




USA.gov is the U.S. government's official web portal to all federal, state and local government web resources and services.